User: anonymous   Login
Location: Unspecified
(0.0000°N, 0.0000°E)
Time: 00:53:17
(UTC+00:00)
Language:

Tansei-3 - Orbit

View from above orbital plane
View from above orbital plane
View from above satellite
View from above satellite

Ground track
Ground track

The orbit data is extracted from the following two-line orbital elements,

1 09841U 77012A   21023.53974604 -.00000009  00000-0  75000-4 0  9991
2 09841  65.7573 236.5322 1720602  98.0032 281.8755 10.73828514722107
Epoch (UTC): 23 January 2021 12:57:14
Eccentricity: 0.1720602
inclination: 65.7573°
perigee height: 807 km
apogee height: 3793 km
right ascension of ascending node: 236.5322°
argument of perigee: 98.0032°
revolutions per day: 10.73828514
mean anomaly at epoch: 281.8755°
orbit number at epoch: 72210

The dashed part of the orbit path shows where the satellite is in the earth's shadow,  

DLR